contact:dominique.lefevre@mio.osupytheas.fr, maurice.libes@osupytheas.fr, didier.mallarino@osupytheas.fr
Project:EMSO http://www.emso-fr.org/EMSO-France
Depth: 2436.0 m
Title:EMSO Ligure Ouest : Data MII capteur MICROCAT
DateTime_Computer,Latitude,Longitude,Temperature,Conductivity,Pressure,DateTime_Instrument
DateTime_Computer,Latitude,Longitude,degC,S m-1,dbar,DateTime_Instrument
2022-08-25T00:02:57Z,42.805,6.029,13.3039,4.60125,2470.6,2022-8-25T02:04:47Z
2022-08-25T00:06:00Z,42.805,6.029,13.3025,4.60092,2470.563,2022-8-25T02:07:51Z
2022-08-25T00:09:03Z,42.805,6.029,13.3031,4.60125,2470.577,2022-8-25T02:10:54Z
2022-08-25T00:12:07Z,42.805,6.029,13.3023,4.60068,2470.591,2022-8-25T02:13:57Z
2022-08-25T00:15:10Z,42.805,6.029,13.3021,4.60092,2470.577,2022-8-25T02:17:00Z
2022-08-25T00:18:13Z,42.805,6.029,13.3031,4.60132,2470.577,2022-8-25T02:20:03Z
2022-08-25T00:21:16Z,42.805,6.029,13.3059,4.60103,2470.6,2022-8-25T02:23:06Z
2022-08-25T00:24:19Z,42.805,6.029,13.3046,4.60102,2470.591,2022-8-25T02:26:09Z
2022-08-25T00:27:22Z,42.805,6.029,13.3050,4.60102,2470.553,2022-8-25T02:29:12Z
2022-08-25T00:30:25Z,42.805,6.029,13.3052,4.60123,2470.591,2022-8-25T02:32:16Z
2022-08-25T00:33:28Z,42.805,6.029,13.3043,4.60155,2470.591,2022-8-25T02:35:19Z
2022-08-25T00:36:32Z,42.805,6.029,13.3054,4.60125,2470.591,2022-8-25T02:38:22Z
2022-08-25T00:39:35Z,42.805,6.029,13.3053,4.60132,2470.614,2022-8-25T02:41:25Z
2022-08-25T00:42:38Z,42.805,6.029,13.3038,4.60115,2470.553,2022-8-25T02:44:28Z
2022-08-25T00:45:41Z,42.805,6.029,13.3039,4.60143,2470.577,2022-8-25T02:47:31Z
2022-08-25T00:48:44Z,42.805,6.029,13.3038,4.60116,2470.591,2022-8-25T02:50:34Z
2022-08-25T00:51:47Z,42.805,6.029,13.3077,4.60117,2470.553,2022-8-25T02:53:37Z
2022-08-25T00:54:50Z,42.805,6.029,13.3063,4.60148,2470.577,2022-8-25T02:56:41Z
2022-08-25T00:57:53Z,42.805,6.029,13.3065,4.60127,2470.567,2022-8-25T02:59:44Z
2022-08-25T01:00:57Z,42.805,6.029,13.3041,4.60120,2470.591,2022-8-25T03:02:47Z
2022-08-25T01:04:00Z,42.805,6.029,13.3039,4.60118,2470.614,2022-8-25T03:05:50Z
2022-08-25T01:07:03Z,42.805,6.029,13.3045,4.60102,2470.591,2022-8-25T03:08:53Z
2022-08-25T01:10:06Z,42.805,6.029,13.3047,4.60137,2470.567,2022-8-25T03:11:56Z
2022-08-25T01:13:09Z,42.805,6.029,13.3038,4.60117,2470.553,2022-8-25T03:14:59Z
2022-08-25T01:16:12Z,42.805,6.029,13.3034,4.60147,2470.6,2022-8-25T03:18:02Z
2022-08-25T01:19:15Z,42.805,6.029,13.3036,4.60070,2470.577,2022-8-25T03:21:06Z
2022-08-25T01:22:18Z,42.805,6.029,13.3067,4.60099,2470.581,2022-8-25T03:24:09Z
2022-08-25T01:25:22Z,42.805,6.029,13.3034,4.60144,2470.591,2022-8-25T03:27:12Z
2022-08-25T01:28:25Z,42.805,6.029,13.3073,4.60108,2470.577,2022-8-25T03:30:15Z
2022-08-25T01:31:28Z,42.805,6.029,13.3052,4.60104,2470.544,2022-8-25T03:33:18Z
2022-08-25T01:34:31Z,42.805,6.029,13.3044,4.60130,2470.553,2022-8-25T03:36:21Z
2022-08-25T01:37:34Z,42.805,6.029,13.3049,4.60114,2470.553,2022-8-25T03:39:24Z
2022-08-25T01:40:37Z,42.805,6.029,13.3052,4.60152,2470.624,2022-8-25T03:42:27Z
2022-08-25T01:43:40Z,42.805,6.029,13.3056,4.60117,2470.614,2022-8-25T03:45:31Z
2022-08-25T01:46:43Z,42.805,6.029,13.3069,4.60131,2470.567,2022-8-25T03:48:34Z
2022-08-25T01:49:47Z,42.805,6.029,13.3081,4.60111,2470.6,2022-8-25T03:51:37Z
2022-08-25T01:52:50Z,42.805,6.029,13.3051,4.60093,2470.591,2022-8-25T03:54:40Z
2022-08-25T01:55:53Z,42.805,6.029,13.3068,4.60140,2470.6,2022-8-25T03:57:43Z
2022-08-25T01:58:56Z,42.805,6.029,13.3070,4.60173,2470.577,2022-8-25T04:00:46Z
2022-08-25T02:01:59Z,42.805,6.029,13.3074,4.60134,2470.577,2022-8-25T04:03:49Z
2022-08-25T02:05:02Z,42.805,6.029,13.3073,4.60127,2470.567,2022-8-25T04:06:52Z
2022-08-25T02:08:05Z,42.805,6.029,13.3089,4.60122,2470.591,2022-8-25T04:09:55Z
2022-08-25T02:11:08Z,42.805,6.029,13.3078,4.60087,2470.591,2022-8-25T04:12:59Z
2022-08-25T02:14:11Z,42.805,6.029,13.3085,4.60129,2470.53,2022-8-25T04:16:02Z
2022-08-25T02:17:15Z,42.805,6.029,13.3080,4.60134,2470.577,2022-8-25T04:19:05Z
2022-08-25T02:20:18Z,42.805,6.029,13.3083,4.60134,2470.577,2022-8-25T04:22:08Z
2022-08-25T02:23:21Z,42.805,6.029,13.3082,4.60097,2470.591,2022-8-25T04:25:11Z
2022-08-25T02:26:24Z,42.805,6.029,13.3084,4.60125,2470.577,2022-8-25T04:28:14Z
2022-08-25T02:29:27Z,42.805,6.029,13.3054,4.60115,2470.591,2022-8-25T04:31:17Z
2022-08-25T02:32:30Z,42.805,6.029,13.3044,4.60142,2470.6,2022-8-25T04:34:20Z
2022-08-25T02:35:33Z,42.805,6.029,13.3056,4.60105,2470.614,2022-8-25T04:37:24Z
2022-08-25T02:38:36Z,42.805,6.029,13.3078,4.60141,2470.577,2022-8-25T04:40:27Z
2022-08-25T02:41:40Z,42.805,6.029,13.3086,4.60113,2470.6,2022-8-25T04:43:30Z
2022-08-25T02:44:43Z,42.805,6.029,13.3081,4.60143,2470.591,2022-8-25T04:46:33Z
2022-08-25T02:47:46Z,42.805,6.029,13.3073,4.60097,2470.577,2022-8-25T04:49:36Z
2022-08-25T02:50:49Z,42.805,6.029,13.3067,4.60114,2470.577,2022-8-25T04:52:39Z
2022-08-25T02:53:52Z,42.805,6.029,13.3050,4.60125,2470.591,2022-8-25T04:55:42Z
2022-08-25T02:56:55Z,42.805,6.029,13.3045,4.60114,2470.6,2022-8-25T04:58:45Z
2022-08-25T02:59:58Z,42.805,6.029,13.3062,4.60119,2470.614,2022-8-25T05:01:49Z
2022-08-25T03:03:01Z,42.805,6.029,13.3056,4.60082,2470.614,2022-8-25T05:04:52Z
2022-08-25T03:06:05Z,42.805,6.029,13.3048,4.60105,2470.614,2022-8-25T05:07:55Z
2022-08-25T03:09:08Z,42.805,6.029,13.3054,4.60125,2470.6,2022-8-25T05:10:58Z
2022-08-25T03:12:11Z,42.805,6.029,13.3064,4.60089,2470.591,2022-8-25T05:14:01Z
2022-08-25T03:15:14Z,42.805,6.029,13.3053,4.60102,2470.624,2022-8-25T05:17:04Z
2022-08-25T03:18:17Z,42.805,6.029,13.3056,4.60105,2470.624,2022-8-25T05:20:07Z
2022-08-25T03:21:20Z,42.805,6.029,13.3048,4.60104,2470.637,2022-8-25T05:23:10Z
2022-08-25T03:24:23Z,42.805,6.029,13.3045,4.60088,2470.624,2022-8-25T05:26:13Z
2022-08-25T03:27:26Z,42.805,6.029,13.3044,4.60082,2470.614,2022-8-25T05:29:17Z
2022-08-25T03:30:29Z,42.805,6.029,13.3046,4.60075,2470.646,2022-8-25T05:32:20Z
2022-08-25T03:33:33Z,42.805,6.029,13.3036,4.60102,2470.591,2022-8-25T05:35:23Z
2022-08-25T03:36:36Z,42.805,6.029,13.3049,4.60074,2470.624,2022-8-25T05:38:26Z
2022-08-25T03:39:39Z,42.805,6.029,13.3085,4.60084,2470.624,2022-8-25T05:41:29Z
2022-08-25T03:42:42Z,42.805,6.029,13.3056,4.60074,2470.624,2022-8-25T05:44:32Z
2022-08-25T03:45:45Z,42.805,6.029,13.3056,4.60069,2470.624,2022-8-25T05:47:35Z
2022-08-25T03:48:48Z,42.805,6.029,13.3057,4.60074,2470.646,2022-8-25T05:50:38Z
2022-08-25T03:51:51Z,42.805,6.029,13.3055,4.60080,2470.6,2022-8-25T05:53:42Z
2022-08-25T03:54:54Z,42.805,6.029,13.3038,4.60095,2470.624,2022-8-25T05:56:45Z
2022-08-25T03:57:58Z,42.805,6.029,13.3055,4.60089,2470.614,2022-8-25T05:59:48Z
2022-08-25T04:01:01Z,42.805,6.029,13.3055,4.60084,2470.637,2022-8-25T06:02:51Z
2022-08-25T04:04:04Z,42.805,6.029,13.3082,4.60092,2470.633,2022-8-25T06:05:54Z
2022-08-25T04:07:07Z,42.805,6.029,13.3059,4.60081,2470.661,2022-8-25T06:08:57Z
2022-08-25T04:10:10Z,42.805,6.029,13.3053,4.60114,2470.637,2022-8-25T06:12:00Z
2022-08-25T04:13:13Z,42.805,6.029,13.3066,4.60070,2470.661,2022-8-25T06:15:03Z
2022-08-25T04:16:16Z,42.805,6.029,13.3051,4.60104,2470.624,2022-8-25T06:18:07Z
2022-08-25T04:19:19Z,42.805,6.029,13.3056,4.60100,2470.624,2022-8-25T06:21:10Z
2022-08-25T04:22:23Z,42.805,6.029,13.3043,4.60081,2470.637,2022-8-25T06:24:13Z
2022-08-25T04:25:26Z,42.805,6.029,13.3070,4.60109,2470.624,2022-8-25T06:27:16Z
2022-08-25T04:28:29Z,42.805,6.029,13.3051,4.60098,2470.624,2022-8-25T06:30:19Z
2022-08-25T04:31:32Z,42.805,6.029,13.3056,4.60092,2470.646,2022-8-25T06:33:22Z
2022-08-25T04:34:35Z,42.805,6.029,13.3048,4.60094,2470.624,2022-8-25T06:36:25Z
2022-08-25T04:37:38Z,42.805,6.029,13.3085,4.60072,2470.6,2022-8-25T06:39:28Z
2022-08-25T04:40:41Z,42.805,6.029,13.3037,4.60067,2470.661,2022-8-25T06:42:32Z
2022-08-25T04:43:44Z,42.805,6.029,13.3039,4.60081,2470.67,2022-8-25T06:45:35Z
2022-08-25T04:46:48Z,42.805,6.029,13.3070,4.60084,2470.637,2022-8-25T06:48:38Z
2022-08-25T04:49:51Z,42.805,6.029,13.3075,4.60102,2470.646,2022-8-25T06:51:41Z
2022-08-25T04:52:54Z,42.805,6.029,13.3056,4.60081,2470.646,2022-8-25T06:54:44Z
2022-08-25T04:55:57Z,42.805,6.029,13.3039,4.60085,2470.624,2022-8-25T06:57:47Z
2022-08-25T04:59:00Z,42.805,6.029,13.3051,4.60075,2470.646,2022-8-25T07:00:50Z
2022-08-25T05:02:03Z,42.805,6.029,13.3059,4.60079,2470.646,2022-8-25T07:03:53Z
2022-08-25T05:05:06Z,42.805,6.029,13.3067,4.60077,2470.646,2022-8-25T07:06:57Z
2022-08-25T05:08:09Z,42.805,6.029,13.3071,4.60109,2470.637,2022-8-25T07:10:00Z
2022-08-25T05:11:13Z,42.805,6.029,13.3062,4.60079,2470.637,2022-8-25T07:13:03Z
2022-08-25T05:14:16Z,42.805,6.029,13.3046,4.60098,2470.661,2022-8-25T07:16:06Z
2022-08-25T05:17:19Z,42.805,6.029,13.3056,4.60105,2470.693,2022-8-25T07:19:09Z
2022-08-25T05:20:22Z,42.805,6.029,13.3074,4.60079,2470.624,2022-8-25T07:22:12Z
2022-08-25T05:23:25Z,42.805,6.029,13.3078,4.60086,2470.646,2022-8-25T07:25:15Z
2022-08-25T05:26:28Z,42.805,6.029,13.3070,4.60112,2470.684,2022-8-25T07:28:18Z
2022-08-25T05:29:31Z,42.805,6.029,13.3066,4.60081,2470.661,2022-8-25T07:31:21Z
2022-08-25T05:32:34Z,42.805,6.029,13.3064,4.60086,2470.646,2022-8-25T07:34:25Z
2022-08-25T05:35:38Z,42.805,6.029,13.3078,4.60090,2470.637,2022-8-25T07:37:28Z
2022-08-25T05:38:41Z,42.805,6.029,13.3073,4.60078,2470.661,2022-8-25T07:40:31Z
2022-08-25T05:41:44Z,42.805,6.029,13.3089,4.60075,2470.67,2022-8-25T07:43:34Z
2022-08-25T05:44:47Z,42.805,6.029,13.3067,4.60092,2470.661,2022-8-25T07:46:37Z
2022-08-25T05:47:50Z,42.805,6.029,13.3080,4.60089,2470.646,2022-8-25T07:49:40Z
2022-08-25T05:50:53Z,42.805,6.029,13.3082,4.60107,2470.637,2022-8-25T07:52:43Z
2022-08-25T05:53:56Z,42.805,6.029,13.3073,4.60080,2470.646,2022-8-25T07:55:46Z
2022-08-25T05:56:59Z,42.805,6.029,13.3051,4.60102,2470.646,2022-8-25T07:58:50Z
2022-08-25T06:00:02Z,42.805,6.029,13.3073,4.60097,2470.646,2022-8-25T08:01:53Z
2022-08-25T06:03:06Z,42.805,6.029,13.3096,4.60087,2470.646,2022-8-25T08:04:56Z
2022-08-25T06:06:09Z,42.805,6.029,13.3065,4.60081,2470.67,2022-8-25T08:07:59Z
2022-08-25T06:09:12Z,42.805,6.029,13.3058,4.60087,2470.661,2022-8-25T08:11:02Z
2022-08-25T06:12:15Z,42.805,6.029,13.3037,4.60085,2470.661,2022-8-25T08:14:05Z
2022-08-25T06:15:18Z,42.805,6.029,13.3067,4.60081,2470.661,2022-8-25T08:17:08Z
2022-08-25T06:18:21Z,42.805,6.029,13.3083,4.60079,2470.67,2022-8-25T08:20:11Z
2022-08-25T06:21:24Z,42.805,6.029,13.3085,4.60092,2470.646,2022-8-25T08:23:15Z
2022-08-25T06:24:27Z,42.805,6.029,13.3092,4.60087,2470.646,2022-8-25T08:26:18Z
2022-08-25T06:27:31Z,42.805,6.029,13.3085,4.60103,2470.661,2022-8-25T08:29:21Z
2022-08-25T06:30:34Z,42.805,6.029,13.3069,4.60113,2470.661,2022-8-25T08:32:24Z
2022-08-25T06:33:37Z,42.805,6.029,13.3079,4.60083,2470.661,2022-8-25T08:35:27Z
2022-08-25T06:36:40Z,42.805,6.029,13.3079,4.60084,2470.661,2022-8-25T08:38:30Z
2022-08-25T06:39:43Z,42.805,6.029,13.3084,4.60077,2470.646,2022-8-25T08:41:33Z
2022-08-25T06:42:46Z,42.805,6.029,13.3078,4.60085,2470.624,2022-8-25T08:44:36Z
2022-08-25T06:45:49Z,42.805,6.029,13.3058,4.60099,2470.624,2022-8-25T08:47:40Z
2022-08-25T06:48:52Z,42.805,6.029,13.3082,4.60085,2470.661,2022-8-25T08:50:43Z
2022-08-25T06:51:56Z,42.805,6.029,13.3075,4.60081,2470.67,2022-8-25T08:53:46Z
2022-08-25T06:54:59Z,42.805,6.029,13.3060,4.60097,2470.684,2022-8-25T08:56:49Z
2022-08-25T06:58:02Z,42.805,6.029,13.3061,4.60098,2470.661,2022-8-25T08:59:52Z
2022-08-25T07:01:05Z,42.805,6.029,13.3061,4.60089,2470.661,2022-8-25T09:02:55Z
2022-08-25T07:04:08Z,42.805,6.029,13.3061,4.60081,2470.661,2022-8-25T09:05:58Z
2022-08-25T07:07:11Z,42.805,6.029,13.3096,4.60090,2470.637,2022-8-25T09:09:01Z
2022-08-25T07:10:14Z,42.805,6.029,13.3089,4.60084,2470.637,2022-8-25T09:12:05Z
2022-08-25T07:13:17Z,42.805,6.029,13.3085,4.60078,2470.661,2022-8-25T09:15:08Z
2022-08-25T07:16:21Z,42.805,6.029,13.3081,4.60097,2470.67,2022-8-25T09:18:11Z
2022-08-25T07:19:24Z,42.805,6.029,13.3067,4.60119,2470.646,2022-8-25T09:21:14Z
2022-08-25T07:22:27Z,42.805,6.029,13.3099,4.60084,2470.661,2022-8-25T09:24:17Z
2022-08-25T07:25:30Z,42.805,6.029,13.3086,4.60094,2470.661,2022-8-25T09:27:20Z
2022-08-25T07:28:33Z,42.805,6.029,13.3078,4.60122,2470.637,2022-8-25T09:30:23Z
2022-08-25T07:31:36Z,42.805,6.029,13.3079,4.60110,2470.646,2022-8-25T09:33:26Z
2022-08-25T07:34:39Z,42.805,6.029,13.3079,4.60089,2470.67,2022-8-25T09:36:30Z
2022-08-25T07:37:42Z,42.805,6.029,13.3091,4.60114,2470.684,2022-8-25T09:39:33Z
2022-08-25T07:40:46Z,42.805,6.029,13.3089,4.60107,2470.637,2022-8-25T09:42:36Z
2022-08-25T07:43:49Z,42.805,6.029,13.3092,4.60114,2470.661,2022-8-25T09:45:39Z
2022-08-25T07:46:52Z,42.805,6.029,13.3089,4.60097,2470.661,2022-8-25T09:48:42Z
2022-08-25T07:49:55Z,42.805,6.029,13.3099,4.60078,2470.646,2022-8-25T09:51:45Z
2022-08-25T07:52:58Z,42.805,6.029,13.3101,4.60081,2470.614,2022-8-25T09:54:48Z
2022-08-25T07:56:01Z,42.805,6.029,13.3098,4.60089,2470.624,2022-8-25T09:57:51Z
2022-08-25T07:59:04Z,42.805,6.029,13.3091,4.60092,2470.637,2022-8-25T10:00:55Z
2022-08-25T08:02:07Z,42.805,6.029,13.3084,4.60160,2470.624,2022-8-25T10:03:58Z
2022-08-25T08:05:11Z,42.805,6.029,13.3085,4.60084,2470.637,2022-8-25T10:07:01Z
2022-08-25T08:08:14Z,42.805,6.029,13.3089,4.60090,2470.614,2022-8-25T10:10:04Z
2022-08-25T08:11:17Z,42.805,6.029,13.3097,4.60105,2470.6,2022-8-25T10:13:07Z
2022-08-25T08:14:20Z,42.805,6.029,13.3071,4.60122,2470.646,2022-8-25T10:16:10Z
2022-08-25T08:17:23Z,42.805,6.029,13.3007,4.60163,2470.637,2022-8-25T10:19:13Z
2022-08-25T08:20:26Z,42.805,6.029,13.3011,4.60148,2470.577,2022-8-25T10:22:16Z
2022-08-25T08:23:29Z,42.805,6.029,13.3009,4.60198,2470.624,2022-8-25T10:25:19Z
2022-08-25T08:26:32Z,42.805,6.029,13.3016,4.60160,2470.614,2022-8-25T10:28:23Z
2022-08-25T08:29:35Z,42.805,6.029,13.3014,4.60155,2470.6,2022-8-25T10:31:26Z
2022-08-25T08:32:39Z,42.805,6.029,13.3019,4.60150,2470.614,2022-8-25T10:34:29Z
2022-08-25T08:35:42Z,42.805,6.029,13.3021,4.60126,2470.637,2022-8-25T10:37:32Z
2022-08-25T08:38:45Z,42.805,6.029,13.3032,4.60096,2470.6,2022-8-25T10:40:35Z
2022-08-25T08:41:48Z,42.805,6.029,13.3043,4.60094,2470.6,2022-8-25T10:43:38Z
2022-08-25T08:44:51Z,42.805,6.029,13.3060,4.60117,2470.6,2022-8-25T10:46:41Z
2022-08-25T08:47:54Z,42.805,6.029,13.3072,4.60095,2470.6,2022-8-25T10:49:45Z
2022-08-25T08:50:57Z,42.805,6.029,13.3078,4.60110,2470.6,2022-8-25T10:52:48Z
2022-08-25T08:54:01Z,42.805,6.029,13.3083,4.60126,2470.614,2022-8-25T10:55:51Z
2022-08-25T08:57:04Z,42.805,6.029,13.3092,4.60110,2470.614,2022-8-25T10:58:54Z
2022-08-25T09:00:07Z,42.805,6.029,13.3093,4.60112,2470.591,2022-8-25T11:01:57Z
2022-08-25T09:03:10Z,42.805,6.029,13.3078,4.60115,2470.591,2022-8-25T11:05:00Z
2022-08-25T09:06:13Z,42.805,6.029,13.3091,4.60109,2470.591,2022-8-25T11:08:03Z
2022-08-25T09:09:16Z,42.805,6.029,13.3106,4.60112,2470.614,2022-8-25T11:11:06Z
2022-08-25T09:12:19Z,42.805,6.029,13.3038,4.60146,2470.614,2022-8-25T11:14:10Z
2022-08-25T09:15:22Z,42.805,6.029,13.3051,4.60166,2470.624,2022-8-25T11:17:13Z
2022-08-25T09:18:26Z,42.805,6.029,13.3130,4.60142,2470.614,2022-8-25T11:20:16Z
2022-08-25T09:21:29Z,42.805,6.029,13.3041,4.60155,2470.591,2022-8-25T11:23:19Z
2022-08-25T09:24:32Z,42.805,6.029,13.3060,4.60119,2470.6,2022-8-25T11:26:22Z
2022-08-25T09:27:35Z,42.805,6.029,13.3084,4.60116,2470.591,2022-8-25T11:29:25Z
2022-08-25T09:30:38Z,42.805,6.029,13.3101,4.60123,2470.53,2022-8-25T11:32:28Z
2022-08-25T09:33:41Z,42.805,6.029,13.3067,4.60101,2470.591,2022-8-25T11:35:31Z
2022-08-25T09:36:44Z,42.805,6.029,13.3065,4.60084,2470.567,2022-8-25T11:38:35Z
2022-08-25T09:39:47Z,42.805,6.029,13.3069,4.60089,2470.591,2022-8-25T11:41:38Z
2022-08-25T09:42:51Z,42.805,6.029,13.3075,4.60102,2470.577,2022-8-25T11:44:41Z
2022-08-25T09:45:54Z,42.805,6.029,13.3067,4.60121,2470.591,2022-8-25T11:47:44Z
2022-08-25T09:48:57Z,42.805,6.029,13.3034,4.60135,2470.614,2022-8-25T11:50:47Z
2022-08-25T09:52:00Z,42.805,6.029,13.3024,4.60097,2470.553,2022-8-25T11:53:50Z
2022-08-25T09:55:03Z,42.805,6.029,13.3012,4.60080,2470.553,2022-8-25T11:56:53Z
2022-08-25T09:58:06Z,42.805,6.029,13.3014,4.60065,2470.591,2022-8-25T11:59:56Z
2022-08-25T10:01:09Z,42.805,6.029,13.3013,4.60064,2470.6,2022-8-25T12:03:00Z
2022-08-25T10:04:12Z,42.805,6.029,13.3009,4.60061,2470.553,2022-8-25T12:06:03Z
2022-08-25T10:07:16Z,42.805,6.029,13.3017,4.60059,2470.544,2022-8-25T12:09:06Z
2022-08-25T10:10:19Z,42.805,6.029,13.3011,4.60057,2470.614,2022-8-25T12:12:09Z
2022-08-25T10:13:22Z,42.805,6.029,13.3011,4.60054,2470.591,2022-8-25T12:15:12Z
2022-08-25T10:16:25Z,42.805,6.029,13.3009,4.60056,2470.553,2022-8-25T12:18:15Z
2022-08-25T10:19:28Z,42.805,6.029,13.3009,4.60059,2470.53,2022-8-25T12:21:18Z
2022-08-25T10:22:31Z,42.805,6.029,13.3008,4.60060,2470.577,2022-8-25T12:24:21Z
2022-08-25T10:25:34Z,42.805,6.029,13.3011,4.60057,2470.544,2022-8-25T12:27:25Z
2022-08-25T10:28:37Z,42.805,6.029,13.3103,4.60164,2470.53,2022-8-25T12:30:28Z
2022-08-25T10:31:41Z,42.805,6.029,13.3013,4.60092,2470.567,2022-8-25T12:33:31Z
2022-08-25T10:34:44Z,42.805,6.029,13.3014,4.60093,2470.52,2022-8-25T12:36:34Z
2022-08-25T10:37:47Z,42.805,6.029,13.3008,4.60084,2470.53,2022-8-25T12:39:37Z
2022-08-25T10:40:50Z,42.805,6.029,13.3009,4.60075,2470.567,2022-8-25T12:42:40Z
2022-08-25T10:43:53Z,42.805,6.029,13.3009,4.60073,2470.567,2022-8-25T12:45:43Z
2022-08-25T10:46:56Z,42.805,6.029,13.3009,4.60062,2470.553,2022-8-25T12:48:46Z
2022-08-25T10:49:59Z,42.805,6.029,13.3014,4.60076,2470.553,2022-8-25T12:51:50Z
2022-08-25T10:53:02Z,42.805,6.029,13.3008,4.60074,2470.553,2022-8-25T12:54:53Z
2022-08-25T10:56:06Z,42.805,6.029,13.3039,4.60074,2470.507,2022-8-25T12:57:56Z
2022-08-25T10:59:09Z,42.805,6.029,13.3049,4.60064,2470.52,2022-8-25T13:00:59Z
2022-08-25T11:02:12Z,42.805,6.029,13.3050,4.60061,2470.52,2022-8-25T13:04:02Z
2022-08-25T11:05:15Z,42.805,6.029,13.3051,4.60071,2470.483,2022-8-25T13:07:05Z
2022-08-25T11:08:18Z,42.805,6.029,13.3048,4.60064,2470.53,2022-8-25T13:10:08Z
2022-08-25T11:11:21Z,42.805,6.029,13.3062,4.60086,2470.544,2022-8-25T13:13:11Z
2022-08-25T11:14:24Z,42.805,6.029,13.3051,4.60072,2470.53,2022-8-25T13:16:15Z
2022-08-25T11:17:27Z,42.805,6.029,13.3061,4.60092,2470.52,2022-8-25T13:19:18Z
2022-08-25T11:20:31Z,42.805,6.029,13.3063,4.60062,2470.483,2022-8-25T13:22:21Z
2022-08-25T11:23:34Z,42.805,6.029,13.3040,4.60073,2470.507,2022-8-25T13:25:24Z
2022-08-25T11:26:37Z,42.805,6.029,13.3061,4.60114,2470.497,2022-8-25T13:28:27Z
2022-08-25T11:29:40Z,42.805,6.029,13.3079,4.60086,2470.497,2022-8-25T13:31:30Z
2022-08-25T11:32:43Z,42.805,6.029,13.3056,4.60080,2470.567,2022-8-25T13:34:33Z
2022-08-25T11:35:46Z,42.805,6.029,13.3063,4.60082,2470.544,2022-8-25T13:37:36Z
2022-08-25T11:38:49Z,42.805,6.029,13.3062,4.60074,2470.507,2022-8-25T13:40:40Z
2022-08-25T11:41:52Z,42.805,6.029,13.3075,4.60099,2470.497,2022-8-25T13:43:43Z
2022-08-25T11:44:56Z,42.805,6.029,13.3068,4.60089,2470.507,2022-8-25T13:46:46Z
2022-08-25T11:47:59Z,42.805,6.029,13.3047,4.60084,2470.507,2022-8-25T13:49:49Z
2022-08-25T11:51:02Z,42.805,6.029,13.3065,4.60132,2470.52,2022-8-25T13:52:52Z
2022-08-25T11:54:05Z,42.805,6.029,13.3063,4.60106,2470.483,2022-8-25T13:55:55Z
2022-08-25T11:57:08Z,42.805,6.029,13.3056,4.60085,2470.507,2022-8-25T13:58:58Z
2022-08-25T12:00:11Z,42.805,6.029,13.3057,4.60129,2470.52,2022-8-25T14:02:01Z
2022-08-25T12:03:14Z,42.805,6.029,13.3050,4.60122,2470.534,2022-8-25T14:05:05Z
2022-08-25T12:06:17Z,42.805,6.029,13.3061,4.60109,2470.53,2022-8-25T14:08:08Z
2022-08-25T12:09:21Z,42.805,6.029,13.3043,4.60110,2470.497,2022-8-25T14:11:11Z
2022-08-25T12:12:24Z,42.805,6.029,13.3048,4.60119,2470.53,2022-8-25T14:14:14Z
2022-08-25T12:15:27Z,42.805,6.029,13.3073,4.60122,2470.52,2022-8-25T14:17:17Z
2022-08-25T12:18:30Z,42.805,6.029,13.3061,4.60134,2470.507,2022-8-25T14:20:20Z
2022-08-25T12:21:33Z,42.805,6.029,13.3041,4.60137,2470.544,2022-8-25T14:23:23Z
2022-08-25T12:24:36Z,42.805,6.029,13.3034,4.60125,2470.544,2022-8-25T14:26:26Z
2022-08-25T12:27:39Z,42.805,6.029,13.3046,4.60152,2470.52,2022-8-25T14:29:30Z
2022-08-25T12:30:42Z,42.805,6.029,13.3051,4.60120,2470.53,2022-8-25T14:32:33Z
2022-08-25T12:33:46Z,42.805,6.029,13.3034,4.60152,2470.507,2022-8-25T14:35:36Z
2022-08-25T12:36:49Z,42.805,6.029,13.3047,4.60102,2470.53,2022-8-25T14:38:39Z
2022-08-25T12:39:52Z,42.805,6.029,13.3046,4.60117,2470.507,2022-8-25T14:41:42Z
2022-08-25T12:42:55Z,42.805,6.029,13.3040,4.60167,2470.53,2022-8-25T14:44:45Z
2022-08-25T12:45:58Z,42.805,6.029,13.3041,4.60144,2470.507,2022-8-25T14:47:48Z
2022-08-25T12:49:01Z,42.805,6.029,13.3043,4.60144,2470.544,2022-8-25T14:50:51Z
2022-08-25T12:52:04Z,42.805,6.029,13.3055,4.60118,2470.53,2022-8-25T14:53:55Z
2022-08-25T12:55:07Z,42.805,6.029,13.3039,4.60098,2470.52,2022-8-25T14:56:58Z
2022-08-25T12:58:11Z,42.805,6.029,13.3036,4.60112,2470.544,2022-8-25T15:00:01Z
2022-08-25T13:01:14Z,42.805,6.029,13.3031,4.60152,2470.483,2022-8-25T15:03:04Z
2022-08-25T13:04:17Z,42.805,6.029,13.3031,4.60130,2470.507,2022-8-25T15:06:07Z
2022-08-25T13:07:20Z,42.805,6.029,13.3032,4.60104,2470.52,2022-8-25T15:09:10Z
2022-08-25T13:10:23Z,42.805,6.029,13.3057,4.60156,2470.52,2022-8-25T15:12:13Z
2022-08-25T13:13:26Z,42.805,6.029,13.3040,4.60094,2470.507,2022-8-25T15:15:17Z
2022-08-25T13:16:29Z,42.805,6.029,13.3051,4.60142,2470.52,2022-8-25T15:18:20Z
2022-08-25T13:19:32Z,42.805,6.029,13.3043,4.60101,2470.52,2022-8-25T15:21:23Z
2022-08-25T13:22:36Z,42.805,6.029,13.3026,4.60110,2470.53,2022-8-25T15:24:26Z
2022-08-25T13:25:39Z,42.805,6.029,13.3041,4.60111,2470.507,2022-8-25T15:27:29Z
2022-08-25T13:28:42Z,42.805,6.029,13.3035,4.60132,2470.544,2022-8-25T15:30:32Z
2022-08-25T13:31:45Z,42.805,6.029,13.3056,4.60113,2470.544,2022-8-25T15:33:35Z
2022-08-25T13:34:48Z,42.805,6.029,13.3043,4.60144,2470.53,2022-8-25T15:36:38Z
2022-08-25T13:37:51Z,42.805,6.029,13.3048,4.60121,2470.544,2022-8-25T15:39:42Z
2022-08-25T13:40:54Z,42.805,6.029,13.3033,4.60095,2470.53,2022-8-25T15:42:45Z
2022-08-25T13:43:57Z,42.805,6.029,13.3042,4.60144,2470.507,2022-8-25T15:45:48Z
2022-08-25T13:47:01Z,42.805,6.029,13.3034,4.60125,2470.507,2022-8-25T15:48:51Z
2022-08-25T13:50:04Z,42.805,6.029,13.3045,4.60107,2470.497,2022-8-25T15:51:54Z
2022-08-25T13:53:07Z,42.805,6.029,13.3051,4.60123,2470.53,2022-8-25T15:54:57Z
2022-08-25T13:56:10Z,42.805,6.029,13.3032,4.60125,2470.544,2022-8-25T15:58:00Z
2022-08-25T13:59:13Z,42.805,6.029,13.3058,4.60117,2470.544,2022-8-25T16:01:03Z
2022-08-25T14:02:16Z,42.805,6.029,13.3044,4.60140,2470.553,2022-8-25T16:04:07Z
2022-08-25T14:05:19Z,42.805,6.029,13.3036,4.60093,2470.53,2022-8-25T16:07:10Z
2022-08-25T14:08:23Z,42.805,6.029,13.3026,4.60107,2470.53,2022-8-25T16:10:13Z
2022-08-25T14:11:26Z,42.805,6.029,13.3045,4.60136,2470.544,2022-8-25T16:13:16Z
2022-08-25T14:14:29Z,42.805,6.029,13.3026,4.60121,2470.567,2022-8-25T16:16:19Z
2022-08-25T14:17:32Z,42.805,6.029,13.3040,4.60115,2470.553,2022-8-25T16:19:22Z
2022-08-25T14:20:35Z,42.805,6.029,13.3045,4.60108,2470.553,2022-8-25T16:22:25Z
2022-08-25T14:23:38Z,42.805,6.029,13.3021,4.60110,2470.52,2022-8-25T16:25:28Z
2022-08-25T14:26:41Z,42.805,6.029,13.3029,4.60138,2470.544,2022-8-25T16:28:32Z
2022-08-25T14:29:44Z,42.805,6.029,13.3032,4.60140,2470.544,2022-8-25T16:31:35Z
2022-08-25T14:32:48Z,42.805,6.029,13.3037,4.60097,2470.53,2022-8-25T16:34:38Z
2022-08-25T14:35:51Z,42.805,6.029,13.3031,4.60098,2470.567,2022-8-25T16:37:41Z
2022-08-25T14:38:54Z,42.805,6.029,13.3026,4.60110,2470.577,2022-8-25T16:40:44Z
2022-08-25T14:41:57Z,42.805,6.029,13.3027,4.60102,2470.591,2022-8-25T16:43:47Z
2022-08-25T14:45:00Z,42.805,6.029,13.3041,4.60102,2470.53,2022-8-25T16:46:50Z
2022-08-25T14:48:03Z,42.805,6.029,13.3032,4.60096,2470.539,2022-8-25T16:49:53Z
2022-08-25T14:51:06Z,42.805,6.029,13.3027,4.60088,2470.567,2022-8-25T16:52:57Z
2022-08-25T14:54:09Z,42.805,6.029,13.3036,4.60147,2470.567,2022-8-25T16:56:00Z
2022-08-25T14:57:13Z,42.805,6.029,13.3036,4.60121,2470.53,2022-8-25T16:59:03Z
2022-08-25T15:00:16Z,42.805,6.029,13.3042,4.60150,2470.591,2022-8-25T17:02:06Z
2022-08-25T15:03:19Z,42.805,6.029,13.3044,4.60144,2470.567,2022-8-25T17:05:09Z
2022-08-25T15:06:22Z,42.805,6.029,13.3040,4.60149,2470.614,2022-8-25T17:08:12Z
2022-08-25T15:09:25Z,42.805,6.029,13.3044,4.60098,2470.577,2022-8-25T17:11:15Z
2022-08-25T15:12:28Z,42.805,6.029,13.3032,4.60103,2470.637,2022-8-25T17:14:18Z